Location: Litvinovka
(48.6667°N, 34.3500°E)
Time: 10:34:40
(UTC+00:00)

Cosmos 2151 Rocket - Pass Details

Date: 18 September 2020
Orbit: 618 x 642 km, 82.5° (Epoch: 25 October)

Event Time Altitude Azimuth Distance (km) Brightness Sun altitude
Rises 17:06:58 0° 171° (S) 2,901 6.7 -13.6°
Reaches altitude 10° 17:09:15 10° 165° (SSE) 2,003 5.9 -13.9°
Maximum altitude 17:13:29 46° 93° (E) 858 3.8 -14.6°
Drops below altitude 10° 17:17:47 10° 21° (NNE) 2,033 6.2 -15.2°
Sets 17:20:06 0° 15° (NNE) 2,951 7.1 -15.6°
